Flag Weather past 2 weeks in Foochow, Fujian, China

Now
70 °F

Fog.


Feels Like: 70 °F
Forecast: 63 / 69 °F
Wind: 6 mph from Southeast

Location: Fuzhou Airport

Current Time: Nov 28, 2014 at 4:37:41 PM

Latest Report: Nov 28, 2014 at 4:00 PM


Visibility: 2 mi

Pressure: 29.95 "Hg

Humidity: 88%

Dew point: 66 °F

Location of FoochowLocation

Historic Weather in Foochow — Graph

°F

Foochow temperature yesterday

Maximum temperature yesterday: 70 °F (at 12:00 PM)
Minimum temperature yesterday: 64 °F (at 1:00 AM)
Average temperature yesterday: 66 °F

Past Weeks' High & Low Weather Summary

 TemperatureHumidityPressure
High79 °F (Nov 24, 11:00 AM)94% (Nov 21, 9:00 PM)30.33 "Hg (Nov 21, 9:00 PM)
Low57 °F (Nov 18, 6:00 AM)49% (Nov 17, 2:00 PM)29.92 "Hg (Nov 24, 3:00 PM)
Average66 °F72%30.12 "Hg
* Reported Nov 13 3:00 PM — Nov 28 3:00 PM, Foochow, Weather by CustomWeather, © 2014

Note: Actual official high and low records may vary slightly from our data, if they occured in-between our weather recording intervals... More about our weather records

Advertising

Foochow weather history for previous 24 hours

 ConditionsComfort  
Time TempWeatherWind HumidityBarometerVisibility
3:00 PM
Nov 28
72 °FFog.1 mph88%29.95 "Hg3 mi
2:00 PM72 °FLight rain. Fog.3 mph88%29.95 "Hg3 mi
1:00 PM72 °FScattered clouds.1 mph88%29.95 "HgN/A
12:00 PM73 °FPartly sunny.8 mph74%30.01 "Hg6 mi
11:00 AM75 °FPartly sunny.8 mph69%30.04 "Hg5 mi
10:00 AM72 °FFog.8 mph73%30.04 "Hg3 mi
9:00 AM70 °FPartly sunny.3 mph73%30.04 "Hg4 mi
8:00 AM68 °FFog.3 mph83%30.04 "Hg3 mi
7:00 AM66 °FFog.3 mph83%30.01 "Hg2 mi
6:00 AM64 °FFog.3 mph88%30.01 "Hg3 mi
5:00 AM64 °FFog.No wind94%30.01 "Hg2 mi
4:00 AM64 °FFog.1 mph88%30.01 "Hg2 mi
3:00 AM64 °FFog.3 mph94%30.01 "Hg3 mi
2:00 AM64 °FLight rain. Fog.3 mph88%30.01 "Hg3 mi
1:00 AM64 °FLight rain. Fog.1 mph88%30.01 "Hg3 mi
12:00 AM64 °FSprinkles. Passing clouds.1 mph88%30.04 "Hg4 mi
11:00 PM
Nov 27
66 °FLight rain. Overcast.3 mph78%30.04 "Hg4 mi
10:00 PM68 °FOvercast.3 mph69%30.07 "HgN/A
9:00 PM66 °FOvercast.3 mph78%30.04 "HgN/A
8:00 PM68 °FOvercast.3 mph73%30.04 "HgN/A
7:00 PM66 °FOvercast.8 mph78%30.04 "HgN/A
6:00 PM66 °FOvercast.8 mph78%30.04 "HgN/A
5:00 PM66 °FPartly sunny.8 mph73%30.04 "HgN/A
4:00 PM68 °FOvercast.8 mph69%30.01 "HgN/A
Weather by CustomWeather, © 2014

See weather overviewHow to use our weather pages